Location: Aulus
(42.7909°N, 1.3399°E)
Time: 14:45:28
(UTC+00:00)

Helios 1B rocket - Pass Details

Date: 19 May 2025
Orbit: 497 x 502 km, 98.2° (Epoch: 17 June)

Event Time Altitude Azimuth Distance (km) Brightness Sun altitude
Exits shadow 20:49:43 - 199° (SSW) 2,037 5.0 -14.6°
Reaches altitude 10° 20:50:40 10° 206° (SSW) 1,694 4.6 -14.8°
Maximum altitude 20:53:43 25° 263° (W) 1,037 4.1 -15.1°
Drops below altitude 10° 20:56:49 10° 321° (NW) 1,708 6.2 -15.5°
Sets 20:59:10 0° 335° (NNW) 2,598 7.3 -15.8°
